| time (UTC) | temp C | wind direction | speed KPH | gust KPH | rain 1hr cm | rain 24hr cm | rain mn cm | humidity % | barometer mb |
| 20260510185519 | 23 | 329 | 1.6 | 4.8 | 0.00 | 0.00 | 0.00 | 52 | 1019.1 |
| 20260510184525 | 23 | 313 | 1.6 | 4.8 | 0.00 | 0.00 | 0.00 | 56 | 1019.0 |
| 20260510183530 | 23 | 271 | 1.6 | 1.6 | 0.00 | 0.00 | 0.00 | 60 | 1019.0 |
| 20260510183404 | 24 | 342 | 3.2 | 4.8 | 0.00 | 0.00 | 0.00 | 63 | 1018.6 |
| 20260510175532 | 23 | 318 | 3.2 | 9.7 | 0.00 | 0.00 | 0.00 | 63 | 1018.7 |
| 20260510174520 | 24 | 32 | 1.6 | 4.8 | 0.00 | 0.00 | 0.00 | 66 | 1018.7 |
| 20260510173526 | 23 | 320 | 3.2 | 9.7 | 0.00 | 0.00 | 0.00 | 66 | 1018.6 |
| 20260510172531 | 23 | 331 | 1.6 | 6.4 | 0.00 | 0.00 | 0.00 | 67 | 1018.8 |
| 20260510171518 | 23 | 305 | 1.6 | 4.8 | 0.00 | 0.00 | 0.00 | 68 | 1019.0 |
| 20260510170523 | 23 | 315 | 1.6 | 4.8 | 0.00 | 0.00 | 0.00 | 67 | 1019.0 |
| 20260510165528 | 25 | 312 | 3.2 | 12.9 | 0.00 | 0.00 | 0.00 | 64 | 1018.7 |
| 20260510164516 | 25 | 312 | 1.6 | 4.8 | 0.00 | 0.00 | 0.00 | 67 | 1018.8 |
| 20260510163541 | 25 | 347 | 1.6 | 4.8 | 0.00 | 0.00 | 0.00 | 66 | 1019.0 |
| 20260510163356 | 23 | 335 | 1.6 | 4.8 | 0.00 | 0.00 | 0.00 | 69 | 1018.6 |
| 20260510155525 | 23 | 320 | 3.2 | 11.3 | 0.00 | 0.00 | 0.00 | 68 | 1018.6 |
| 20260510154529 | 23 | 316 | 1.6 | 3.2 | 0.00 | 0.00 | 0.00 | 68 | 1018.2 |
| 20260510153517 | 22 | 307 | 1.6 | 4.8 | 0.00 | 0.00 | 0.00 | 70 | 1018.1 |
| 20260510153409 | 22 | 336 | 3.2 | 4.8 | 0.00 | 0.00 | 0.00 | 70 | 1017.8 |
| 20260510145520 | 21 | 327 | 3.2 | 4.8 | 0.00 | 0.00 | 0.00 | 71 | 1017.9 |
| 20260510144545 | 22 | 329 | 1.6 | 4.8 | 0.00 | 0.00 | 0.00 | 71 | 1018.1 |
| 20260510143530 | 22 | 335 | 1.6 | 3.2 | 0.00 | 0.00 | 0.00 | 70 | 1018.0 |
| 20260510142518 | 21 | 345 | 1.6 | 9.7 | 0.00 | 0.00 | 0.00 | 72 | 1017.9 |
| 20260510141523 | 21 | 344 | 1.6 | 4.8 | 0.00 | 0.00 | 0.00 | 71 | 1018.0 |
| 20260510140528 | 20 | 327 | 1.6 | 4.8 | 0.00 | 0.00 | 0.00 | 72 | 1017.9 |
| 20260510135533 | 20 | 329 | 3.2 | 3.2 | 0.00 | 0.00 | 0.00 | 72 | 1017.9 |
| 20260510134521 | 20 | 31 | 0.0 | 3.2 | 0.00 | 0.00 | 0.00 | 71 | 1017.7 |
| 20260510133525 | 19 | 327 | 0.0 | 1.6 | 0.00 | 0.00 | 0.00 | 74 | 1017.5 |
| 20260510132531 | 17 | 331 | 0.0 | 3.2 | 0.00 | 0.00 | 0.00 | 79 | 1017.7 |
| 20260510131518 | 17 | 333 | 1.6 | 1.6 | 0.00 | 0.00 | 0.00 | 79 | 1017.7 |
| 20260510130524 | 17 | 0.0 | 3.2 | 0.00 | 0.00 | 0.00 | 79 | 1017.5 | |
| 20260510125549 | 17 | 341 | 3.2 | 4.8 | 0.00 | 0.00 | 0.00 | 79 | 1017.2 |
| 20260510124516 | 17 | 346 | 0.0 | 3.2 | 0.00 | 0.00 | 0.00 | 79 | 1017.1 |
| 20260510123521 | 17 | 319 | 0.0 | 1.6 | 0.00 | 0.00 | 0.00 | 80 | 1016.9 |
| 20260510123356 | 15 | 0.0 | 1.6 | 0.00 | 0.00 | 0.00 | 83 | 1016.4 | |
| 20260510115544 | 15 | 329 | 0.0 | 1.6 | 0.00 | 0.00 | 0.00 | 87 | 1015.9 |
| 20260510114550 | 14 | 0.0 | 0.0 | 0.00 | 0.00 | 0.00 | 89 | 1015.7 | |
| 20260510113518 | 13 | 0.0 | 0.0 | 0.00 | 0.00 | 0.00 | 90 | 1015.6 | |
| 20260510113409 | 13 | 0.0 | 0.0 | 0.00 | 0.00 | 0.00 | 89 | 1015.2 | |
| 20260510105541 | 13 | 0.0 | 1.6 | 0.00 | 0.00 | 0.00 | 88 | 1015.3 | |
| 20260510104527 | 13 | 0.0 | 0.0 | 0.00 | 0.00 | 0.00 | 86 | 1015.0 | |
| 20260510103530 | 14 | 0.0 | 0.0 | 0.00 | 0.00 | 0.00 | 85 | 1014.9 | |
| 20260510102518 | 14 | 43 | 0.0 | 1.6 | 0.00 | 0.00 | 0.00 | 85 | 1014.9 |
| 20260510101523 | 15 | 18 | 0.0 | 1.6 | 0.00 | 0.00 | 0.00 | 84 | 1015.0 |
| 20260510100528 | 15 | 0.0 | 0.0 | 0.00 | 0.00 | 0.00 | 85 | 1014.9 | |
| 20260510095516 | 15 | 0.0 | 0.0 | 0.00 | 0.00 | 0.00 | 85 | 1015.0 | |
| 20260510094522 | 15 | 359 | 0.0 | 1.6 | 0.00 | 0.00 | 0.00 | 84 | 1015.0 |
| 20260510093526 | 15 | 312 | 0.0 | 1.6 | 0.00 | 0.00 | 0.00 | 84 | 1014.9 |
| 20260510092530 | 14 | 317 | 0.0 | 1.6 | 0.00 | 0.00 | 0.00 | 83 | 1014.9 |
| 20260510091536 | 14 | 326 | 0.0 | 1.6 | 0.00 | 0.00 | 0.00 | 84 | 1014.7 |
| 20260510090541 | 14 | 40 | 0.0 | 1.6 | 0.00 | 0.00 | 0.00 | 82 | 1014.9 |
| 20260510085528 | 15 | 62 | 0.0 | 1.6 | 0.00 | 0.00 | 0.00 | 79 | 1014.8 |
| 20260510084555 | 15 | 30 | 0.0 | 1.6 | 0.00 | 0.00 | 0.00 | 76 | 1014.8 |
| 20260510083559 | 16 | 1 | 0.0 | 1.6 | 0.00 | 0.00 | 0.00 | 71 | 1014.8 |
| 20260510083437 | 15 | 301 | 1.6 | 1.6 | 0.00 | 0.00 | 0.00 | 74 | 1013.8 |
| 20260510075524 | 16 | 305 | 0.0 | 1.6 | 0.00 | 0.00 | 0.00 | 73 | 1013.7 |
| 20260510074529 | 16 | 290 | 1.6 | 1.6 | 0.00 | 0.00 | 0.00 | 73 | 1013.6 |
| 20260510073518 | 16 | 306 | 0.0 | 1.6 | 0.00 | 0.00 | 0.00 | 70 | 1013.6 |
| 20260510072539 | 17 | 306 | 0.0 | 1.6 | 0.00 | 0.00 | 0.00 | 69 | 1013.4 |
| 20260510071527 | 17 | 213 | 1.6 | 3.2 | 0.00 | 0.05 | 0.00 | 69 | 1013.6 |
| 20260510070553 | 17 | 227 | 0.0 | 1.6 | 0.00 | 0.05 | 0.00 | 70 | 1013.7 |
| 20260510065538 | 17 | 303 | 0.0 | 1.6 | 0.00 | 0.10 | 0.00 | 69 | 1013.8 |
| 20260510064526 | 17 | 310 | 0.0 | 1.6 | 0.00 | 0.10 | 0.00 | 68 | 1013.7 |
| 20260510063530 | 17 | 270 | 1.6 | 3.2 | 0.00 | 0.10 | 0.00 | 69 | 1014.0 |
| 20260510063426 | 18 | 316 | 0.0 | 1.6 | 0.00 | 0.10 | 0.00 | 68 | 1013.5 |
| 20260510055516 | 18 | 275 | 0.0 | 3.2 | 0.00 | 0.10 | 0.00 | 67 | 1013.6 |
| 20260510054521 | 17 | 244 | 0.0 | 3.2 | 0.00 | 0.10 | 0.00 | 69 | 1013.7 |
| 20260510053526 | 17 | 0.0 | 0.0 | 0.00 | 0.10 | 0.00 | 70 | 1013.4 | |
| 20260510053401 | 16 | 312 | 0.0 | 1.6 | 0.00 | 0.10 | 0.00 | 77 | 1013.2 |
| 20260510045529 | 16 | 0.0 | 0.0 | 0.00 | 0.10 | 0.10 | 77 | 1013.2 | |
| 20260510044537 | 16 | 327 | 0.0 | 1.6 | 0.00 | 0.10 | 0.10 | 78 | 1013.2 |
| 20260510043542 | 15 | 0.0 | 0.0 | 0.00 | 0.10 | 0.10 | 78 | 1013.4 | |
| 20260510043357 | 16 | 0.0 | 0.0 | 0.00 | 0.10 | 0.10 | 76 | 1013.1 | |
| 20260510035525 | 16 | 0.0 | 0.0 | 0.00 | 0.10 | 0.10 | 79 | 1013.1 | |
| 20260510034530 | 16 | 0.0 | 0.0 | 0.00 | 0.10 | 0.10 | 80 | 1013.1 | |
| 20260510033518 | 16 | 0.0 | 0.0 | 0.00 | 0.10 | 0.10 | 82 | 1013.1 | |
| 20260510033410 | 17 | 0.0 | 0.0 | 0.00 | 0.10 | 0.10 | 73 | 1012.8 | |
| 20260510025521 | 18 | 0.0 | 0.0 | 0.00 | 0.10 | 0.10 | 71 | 1013.0 | |
| 20260510024546 | 18 | 0.0 | 0.0 | 0.00 | 0.10 | 0.10 | 71 | 1012.8 | |
| 20260510023530 | 17 | 0.0 | 0.0 | 0.00 | 0.10 | 0.10 | 73 | 1012.9 | |
| 20260510023406 | 17 | 0.0 | 0.0 | 0.00 | 0.10 | 0.10 | 81 | 1012.5 | |
| 20260510015518 | 17 | 0.0 | 0.0 | 0.00 | 0.10 | 0.10 | 80 | 1012.4 | |
| 20260510014522 | 17 | 0.0 | 0.0 | 0.00 | 0.10 | 0.10 | 78 | 1012.3 | |
| 20260510013526 | 18 | 0.0 | 0.0 | 0.00 | 0.10 | 0.10 | 76 | 1012.3 | |
| 20260510013402 | 21 | 0.0 | 0.0 | 0.00 | 0.10 | 0.10 | 65 | 1011.7 | |
| 20260510005529 | 22 | 0.0 | 0.0 | 0.00 | 0.10 | 0.10 | 58 | 1011.5 | |
| 20260510004517 | 23 | 0.0 | 0.0 | 0.00 | 0.10 | 0.10 | 54 | 1011.5 | |
| 20260510003522 | 23 | 0.0 | 0.0 | 0.00 | 0.10 | 0.10 | 52 | 1011.2 | |
| 20260510003357 | 25 | 219 | 0.0 | 3.2 | 0.00 | 0.10 | 0.10 | 47 | 1011.0 |
| 20260509235525 | 25 | 204 | 1.6 | 4.8 | 0.00 | 0.10 | 0.10 | 45 | 1011.0 |
| 20260509234530 | 25 | 224 | 1.6 | 4.8 | 0.00 | 0.10 | 0.10 | 44 | 1010.9 |
| 20260509233518 | 26 | 206 | 3.2 | 4.8 | 0.00 | 0.10 | 0.10 | 43 | 1011.0 |
| 20260509233413 | 26 | 257 | 4.8 | 9.7 | 0.00 | 0.10 | 0.10 | 40 | 1011.0 |
| 20260509225541 | 26 | 187 | 4.8 | 11.3 | 0.00 | 0.10 | 0.10 | 40 | 1011.0 |
| 20260509224526 | 26 | 222 | 4.8 | 11.3 | 0.00 | 0.10 | 0.10 | 42 | 1011.0 |
| 20260509223531 | 26 | 149 | 3.2 | 4.8 | 0.00 | 0.10 | 0.10 | 43 | 1010.7 |
| 20260509223406 | 27 | 235 | 3.2 | 11.3 | 0.00 | 0.10 | 0.10 | 40 | 1011.0 |
| 20260509215516 | 27 | 262 | 4.8 | 9.7 | 0.00 | 0.10 | 0.10 | 40 | 1010.8 |
| 20260509214521 | 27 | 265 | 3.2 | 12.9 | 0.00 | 0.10 | 0.10 | 38 | 1010.8 |
| 20260509213527 | 28 | 295 | 1.6 | 3.2 | 0.00 | 0.10 | 0.10 | 36 | 1010.8 |
| 20260509213401 | 27 | 298 | 1.6 | 6.4 | 0.00 | 0.10 | 0.10 | 36 | 1010.8 |
| 20260509205529 | 27 | 276 | 4.8 | 12.9 | 0.00 | 0.10 | 0.10 | 38 | 1010.9 |
| 20260509204518 | 27 | 281 | 4.8 | 11.3 | 0.00 | 0.10 | 0.10 | 40 | 1011.0 |
| 20260509203522 | 27 | 256 | 3.2 | 6.4 | 0.00 | 0.10 | 0.10 | 46 | 1011.1 |
| 20260509203409 | 27 | 251 | 1.6 | 4.8 | 0.00 | 0.10 | 0.10 | 43 | 1011.1 |
| 20260509202328 | 26 | 271 | 3.2 | 11.3 | 0.00 | 0.10 | 0.10 | 45 | 1011.3 |
| 20260509193038 | 26 | 275 | 4.8 | 11.3 | 0.00 | 0.10 | 0.10 | 51 | 1011.7 |